Location: Llangristiolus
(53.2333°N, 4.3333°W)
Time: 05:08:14
(UTC+00:00)

Daily predictions for brighter satellites

Satellite Brightness Start Highest point End
(mag) Time Altitude Azimuth Time Altitude Azimuth Time Altitude Azimuth
Cosmos 2242 Rocket 4.0 00:02:46 30° SSE 00:04:48 56° E 00:09:17 10° NNE
Cosmos 1703 Rocket 3.6 00:03:20 32° S 00:05:18 71° E 00:09:45 10° NNE
Cosmos 923 Rocket 4.0 00:02:02 10° NNW 00:07:21 73° WSW 00:10:11 28° S
Cosmos 1818 3.8 00:02:10 10° NW 00:07:40 71° NE 00:12:50 11° SE
Cosmos 2322 Rocket 2.4 00:05:15 28° S 00:08:04 54° ESE 00:13:32 10° NE
SL-19 R/B 3.8 00:07:24 41° SSE 00:08:27 81° ENE 00:11:35 10° NNW
Okean 1-7 3.0 00:06:47 33° S 00:08:43 81° E 00:13:09 10° NNE
Cosmos 1242 Rocket 4.4 00:05:50 10° N 00:08:51 24° ENE 00:11:04 14° ESE
NOSS 3-4 (A) 4.4 00:04:35 10° WSW 00:10:19 49° NNW 00:16:41 10° NE
NOSS 3-4 (C) 4.4 00:04:39 10° WSW 00:10:24 49° NNW 00:16:47 10° NE
ATLAS CENTAUR R/B 2.4 00:06:03 10° NW 00:10:54 54° NE 00:15:36 10° ESE
Meteor 1-13 Rocket 4.2 00:09:08 25° SSW 00:12:31 80° WNW 00:18:07 10° NNE
ALOS 2 3.3 00:11:03 27° SSW 00:12:52 41° W 00:17:03 10° NNW
USA 267 4.0 00:10:32 25° S 00:13:11 33° SW 00:18:59 10° WNW
Cosmos 2266 Rocket 4.2 00:07:23 10° NNW 00:13:39 64° W 00:17:18 25° SSW
Cosmos 1782 Rocket 3.5 00:12:02 10° NNW 00:16:24 84° W 00:18:18 33° S
Okean 2 Rocket 4.3 00:14:22 10° N 00:18:34 36° ENE 00:21:37 17° SE
ERS-2 2.6 00:15:35 10° N 00:19:08 54° WNW 00:20:41 29° SW
RESURS DK-1 3.1 00:18:37 17° WSW 00:21:37 50° NW 00:25:39 10° NNE
ADEOS Rocket 3.0 00:20:35 27° S 00:23:34 60° W 00:29:21 10° NNW
Cosmos 1844 Rocket 2.7 00:18:34 10° NW 00:24:09 69° WSW 00:27:19 26° SSE
Cosmos 1844 3.7 00:19:27 10° NW 00:25:16 78° WSW 00:28:57 24° SSE
Cosmos 2112 Rocket 4.0 00:22:50 10° NNW 00:28:12 74° WSW 00:31:08 27° SSE
Cosmos 1908 Rocket 4.4 00:24:11 10° NNW 00:28:12 38° W 00:29:59 26° SW
Cosmos 2237 4.2 00:26:12 27° SSW 00:29:24 70° ESE 00:35:06 10° NE
NOSS 3-1 (A) 4.4 00:23:48 10° NW 00:30:41 64° NE 00:38:59 10° ESE
Cosmos 1758 4.1 00:27:28 10° N 00:31:18 45° ENE 00:33:27 23° SE
Cosmos 44 Rocket 4.4 00:27:43 10° WNW 00:31:31 24° WSW 00:32:30 23° SW
Cosmos 1680 Rocket 3.6 00:26:20 10° NNW 00:31:35 62° WSW 00:34:17 28° S
Cosmos 1937 Rocket 3.9 00:29:41 27° SSE 00:32:11 50° ESE 00:37:17 10° NE
Sich 1 Rocket 3.9 00:29:00 10° N 00:33:22 58° ENE 00:35:48 25° SSE
Resurs 1-4 Rocket 4.2 00:32:11 10° NE 00:35:22 16° E 00:38:32 10° ESE
ISS -1.7 00:32:51 10° W 00:33:52 16° WSW 00:33:52 16° WSW
Cosmos 1470 2.6 00:31:49 10° NNW 00:35:44 84° W 00:37:14 36° S
SL-08 ROCKET BODY 4.3 00:31:20 10° N 00:37:20 89° E 00:40:56 25° S
CZ-4C R/B 3.2 00:30:43 10° NW 00:37:27 70° NE 00:45:37 10° ESE
Cosmos 1674 4.1 00:36:19 21° SE 00:37:50 28° E 00:41:04 10° NNE
Okean 2 4.4 00:39:06 23° SE 00:40:57 36° E 00:44:42 10° NNE
Cosmos 2219 Rocket 3.3 00:39:12 20° SSE 00:41:57 31° ESE 00:46:48 10° NE
NOSS 3-1 (C) 4.0 00:35:11 10° NW 00:42:19 89° NE 00:50:53 10° SE
Cosmos 1707 3.2 00:40:54 31° SSE 00:42:25 52° E 00:46:13 10° NNE
SL-16 R/B 2.3 00:38:31 20° SW 00:42:30 73° NW 00:48:13 10° NNE
Cosmos 1300 Rocket 3.5 00:39:51 10° NNW 00:44:12 80° W 00:46:12 32° S
Cosmos 1726 3.2 00:41:00 10° NNW 00:44:16 31° W 00:45:19 26° SW
ATLAS 3B R/B 3.4 00:38:04 10° NW 00:44:49 41° WSW 00:48:51 23° S
Meteor 1-22 Rocket 4.5 00:39:57 10° NNW 00:45:39 62° W 00:49:01 26° S
ASTEX 1 3.4 00:41:31 10° N 00:46:26 80° E 00:49:02 28° S
COSMOS 2428 4.1 00:44:03 17° SE 00:47:03 25° ESE 00:51:38 10° NE
SJ 16-02 3.7 00:44:37 10° W 00:47:44 19° NW 00:50:52 10° N
NOSS 2-1 (E) 2.7 00:48:23 36° SW 00:49:35 85° NW 00:53:01 10° NE
Okean 3 3.9 00:49:30 27° SW 00:51:30 51° WNW 00:55:40 10° N
Cosmos 1898 Rocket 3.5 00:48:36 26° SSW 00:51:39 88° ESE 00:57:01 10° NNE
Nadezhda 2 Rocket 4.5 00:50:32 10° NNW 00:56:47 76° W 01:00:39 24° S
Cosmos 1626 3.1 00:55:39 24° SE 00:57:13 36° E 01:00:37 10° NNE
MOZ.5/SAFIR/RUBIN 5/SL-8 4.2 00:53:59 17° SE 00:57:26 59° ENE 01:02:07 10° N
Cosmos 990 Rocket 4.4 00:57:29 20° SW 01:01:01 59° WNW 01:06:15 10° NNE
Cosmos 2237 Rocket 4.4 00:58:52 10° ESE 01:01:26 13° E 01:04:01 10° ENE
ADEOS II 4.4 01:00:49 10° NE 01:03:49 15° E 01:06:49 10° ESE
Cosmos 2333 4.4 01:01:59 25° S 01:05:07 58° ESE 01:10:39 10° NE
KORONAS-FOTON 4.1 01:03:59 30° SSE 01:05:36 57° E 01:09:20 10° NNE
Cosmos 1553 Rocket 4.1 01:02:58 23° S 01:06:55 72° E 01:13:04 10° NNE
Cosmos 1842 3.9 01:06:00 27° SW 01:07:46 46° WNW 01:11:33 10° N
Cosmos 1300 4.5 01:05:05 10° N 01:08:23 27° ENE 01:11:40 10° SE
PSLV R/B 4.0 01:05:19 10° N 01:09:30 54° WNW 01:11:53 24° SW
GENESIS II 4.4 01:07:21 23° WSW 01:09:38 70° NW 01:13:36 10° NE
Cosmos 405 Rocket 3.9 01:10:48 20° SE 01:12:40 33° E 01:16:03 10° NNE
Cosmos 2221 Rocket 3.7 01:10:52 27° S 01:13:13 68° E 01:17:37 10° NNE
Okean 1 Rocket 3.6 01:09:08 10° N 01:13:28 54° ENE 01:16:47 16° SSE
ATLAS 5 CENTAUR R/B 3.5 01:00:15 10° NW 01:16:00 64° SW 01:19:49 15° SSE
Cosmos 1238 Rocket 1.9 01:13:14 10° NNW 01:16:18 83° WSW 01:17:10 42° S
Cosmos 2360 Rocket 2.2 01:13:37 22° SW 01:17:22 80° WNW 01:23:04 10° NNE
USA 215 3.6 01:11:28 10° ENE 01:17:58 69° N 01:24:29 10° W
Cosmos 1461 2.9 01:13:52 10° NW 01:17:59 79° NE 01:22:14 10° SE
Cosmos 1908 3.1 01:14:52 10° NNW 01:18:41 87° WSW 01:20:34 28° S
Cosmos 2278 Rocket 2.6 01:20:01 10° NNW 01:25:42 65° NE 01:31:20 10° SE
CZ-2D R/B 3.2 01:21:24 10° NNE 01:26:26 37° E 01:30:34 14° SSE
NOSS 2-1 (C) 4.0 01:24:09 14° W 01:26:36 40° NNW 01:29:57 10° NE
NOSS 2-1 (D) 4.1 01:26:22 13° W 01:28:55 39° NNW 01:32:13 10° NE
Cosmos 1048 Rocket 3.9 01:26:39 10° NNW 01:31:54 87° WSW 01:36:30 13° SSE
SME Rocket 3.0 01:32:57 20° SSE 01:35:32 85° WSW 01:40:18 10° NNW
Cosmos 2333 Rocket 2.2 01:33:18 22° SSW 01:37:04 87° ESE 01:42:48 10° NNE
In-Cosmos 22 4.3 01:34:53 22° SSW 01:38:36 70° WNW 01:44:09 10° N
Cosmos 1745 Rocket 4.0 01:32:33 10° NNW 01:38:51 76° W 01:43:37 18° S
Cosmos 1943 Rocket 3.9 01:37:09 10° NNW 01:42:20 34° NE 01:47:29 10° ESE
Thor Agena Rocket 3.6 01:37:07 10° NNE 01:42:24 83° ESE 01:46:03 21° SSW
Cosmos 1242 Rocket 3.5 01:40:17 10° NNW 01:43:34 33° W 01:44:52 25° SW
Cosmos 2322 3.8 01:40:26 21° SSW 01:44:18 77° ESE 01:50:03 10° NE
SL-16 R/B 2.7 01:38:29 10° SSE 01:44:39 76° ENE 01:50:55 10° NNW
Cosmos 1674 Rocket 3.5 01:43:30 24° SSW 01:46:08 85° WNW 01:50:30 10° N
ATLAS CENTAUR R/B 2.3 01:45:08 10° NW 01:49:37 37° WSW 01:52:16 20° S
USA 290 2.8 01:48:51 25° S 01:50:22 46° ESE 01:53:29 10° NE
Cosmos 1818 4.5 01:46:13 10° WNW 01:50:52 29° WSW 01:53:24 20° SSW
Cosmos 2151 Rocket 4.3 01:46:49 10° NNW 01:50:55 39° W 01:53:13 22° SSW
Cosmos 2322 Rocket 3.3 01:47:08 10° WSW 01:52:21 38° NW 01:57:35 10° NNE
Cosmos 494 Rocket 4.0 01:49:35 10° NNW 01:54:41 65° WSW 01:59:08 13° S
USA 229 DEB 3.9 01:48:03 10° NW 01:55:17 78° SW 02:03:05 10° SE
USA 229 3.9 01:48:09 10° NW 01:55:23 78° SW 02:03:09 10° SE
Okean 2 Rocket 4.1 01:52:35 10° NNW 01:56:36 32° W 01:58:57 20° SW
ATLAS 2AS CENTAUR R/B 3.9 01:50:04 10° W 01:57:25 46° NNW 02:04:26 10° NE
Cosmos 1455 Rocket 3.7 01:53:35 10° N 01:58:00 56° ENE 02:02:23 10° SSE
SL-14 R/B 3.3 01:56:23 21° S 01:58:56 76° E 02:02:51 10° NNE
Cosmos 1953 2.5 01:56:27 10° NNW 02:00:25 56° W 02:02:55 21° SSW
GP-B 3.1 01:57:08 10° N 02:01:36 79° W 02:04:48 19° S
NOSS 2-2 (C) 4.1 01:58:05 10° NW 02:02:49 74° SW 02:09:28 10° SE
Cosmos 1378 Rocket 3.8 02:02:46 21° SSW 02:05:38 59° WNW 02:10:03 10° N
EO 1 Delta rocket 4.0 02:03:18 10° N 02:07:55 62° WNW 02:11:18 18° SSW
Helios 1A 3.6 02:04:02 10° SSE 02:08:09 57° ENE 02:12:20 10° N
Cosmos 371 Rocket 3.9 02:04:37 16° S 02:08:21 50° ESE 02:13:04 10° NE
NPP 3.9 02:03:03 10° NNE 02:08:26 65° ESE 02:13:05 14° S
UNK 3.7 02:07:23 10° SSE 02:11:53 85° WSW 02:16:32 10° NNW
CZ-4 R/B 3.8 02:07:29 10° NNE 02:12:13 81° ESE 02:15:53 16° SSW
Cosmos 1674 3.9 02:11:00 17° WSW 02:13:11 29° WNW 02:16:31 10° N
Meteor 1-28 Rocket 3.5 02:11:22 10° SSE 02:15:06 66° ENE 02:18:50 10° N
Cosmos 1975 Rocket 3.7 02:11:29 12° S 02:15:27 52° E 02:19:47 10° NNE
USA 32 4.1 02:11:21 17° SSW 02:15:32 78° W 02:20:50 10° N
NOSS 2-2 (E) 4.4 02:11:01 10° NW 02:15:51 54° SW 02:22:36 10° SSE
Resurs 1-4 Rocket 2.1 02:10:41 10° NNE 02:15:59 86° ESE 02:20:23 15° SSW
Cosmos 1437 Rocket 3.5 02:16:20 10° NNW 02:19:46 33° W 02:21:54 19° SSW
NOSS 3-1 (A) 4.2 02:14:42 10° NW 02:21:47 53° SW 02:30:06 10° SSE
SAR-Lupe-2 3.9 02:18:40 10° NNE 02:22:14 61° ESE 02:25:09 15° S
Cosmos 2074 Rocket 4.5 02:16:50 10° N 02:23:06 64° ENE 02:29:21 10° SSE
Cosmos 2315 Rocket 4.1 02:18:05 14° S 02:23:42 87° WNW 02:30:08 10° N
Cosmos 220 Rocket 4.1 02:21:15 17° SW 02:24:21 64° WNW 02:28:33 10° NNE
Cosmos 2219 Rocket 2.5 02:20:54 14° SW 02:25:37 59° NW 02:31:10 10° NNE
CZ-4C R/B 3.3 02:19:17 10° NW 02:26:04 46° WSW 02:33:56 10° SSE
SL-16 R/B 4.1 02:23:08 10° W 02:27:36 23° NNW 02:32:06 10° NNE
NOSS 0 Rocket 4.2 02:22:49 14° SSW 02:28:08 67° ESE 02:34:21 10° NE
MOS 1 Rocket 3.0 02:26:17 10° S 02:30:35 71° WSW 02:34:52 10° NNW
COSMOS 2428 2.8 02:26:02 15° SW 02:30:50 72° NW 02:36:33 10° NNE
Cosmos 2184 Rocket 4.4 02:24:41 10° N 02:31:01 69° ENE 02:37:14 10° SSE
Cosmos 1626 3.7 02:30:01 13° WSW 02:32:25 23° WNW 02:35:24 10° NNW
Cosmos 1709 Rocket 4.3 02:28:13 10° NNW 02:34:08 50° W 02:39:41 11° SSW
Cosmos 304 Rocket 4.3 02:30:28 12° S 02:34:51 54° ESE 02:39:34 10° NNE
Cosmos 1269 Rocket 4.2 02:29:49 10° NNW 02:35:08 78° ENE 02:40:25 10° SSE
Cosmos 1455 2.9 02:36:11 10° N 02:39:52 53° ENE 02:43:29 10° SSE
Cosmos 1544 Rocket 3.7 02:39:01 10° N 02:43:31 81° E 02:47:55 10° SSE
Cosmos 1300 3.7 02:40:35 10° NNW 02:43:57 31° W 02:46:41 14° SSW
ADEOS II 2.2 02:39:03 10° NNE 02:44:20 82° ESE 02:49:36 10° SSW
Cosmos 2237 Rocket 2.5 02:39:10 12° SSW 02:44:26 67° ESE 02:50:06 10° NE
BREEZE-M DEB (TANK) 4.2 02:32:32 10° WSW 02:44:36 53° S 02:48:19 10° E
Cosmos 1025 Rocket 3.1 02:41:57 10° S 02:46:16 82° E 02:50:37 10° NNE
Cosmos 405 Rocket 4.1 02:45:50 12° WSW 02:48:36 25° WNW 02:51:47 10° N
Cosmos 2150 Rocket 4.1 02:46:37 13° SSW 02:51:22 74° WNW 02:56:33 10° NNE
Cosmos 2297 4.2 02:45:40 10° NNW 02:51:26 68° NE 02:57:10 10° SE
Lacrosse 5 4.2 02:50:50 10° SSE 02:53:15 13° ESE 02:55:41 10° E
IDEFIX/ARIANE 42P 2.7 02:50:37 10° NNE 02:55:55 85° ESE 03:01:13 10° SSW
Cosmos 1461 4.4 02:53:36 10° WNW 02:56:31 19° WSW 02:59:30 10° SSW
USA 215 3.7 02:54:15 10° E 03:00:45 70° N 03:07:16 10° WNW
Cosmos 2360 Rocket 4.0 02:57:43 10° W 03:02:16 24° NW 03:06:51 10° NNE
Meteor 2-10 Rocket 4.4 02:57:19 10° NNW 03:02:37 38° W 03:07:44 10° SSW
CZ-2D R/B 2.8 03:01:26 10° N 03:06:35 44° WNW 03:11:39 10° SW
Cosmos 332 Rocket 3.8 03:02:58 10° SSW 03:07:46 84° ESE 03:12:36 10° NNE
Cosmos 2278 Rocket 3.1 03:04:37 10° NW 03:09:24 28° WSW 03:14:10 10° SSW
USA 305 4.2 03:09:26 10° SSW 03:12:59 27° SE 03:16:32 10° E
Meteor 2-5 Rocket 3.9 03:10:44 10° SSW 03:16:33 69° WNW 03:22:16 10° N
ERBS 4.3 03:15:15 10° S 03:17:15 16° SE 03:19:16 10° E
Cosmos 1867 3.9 03:12:03 10° WSW 03:17:30 64° NW 03:22:59 10° NE
EO 1 Del DPAF 3.4 03:15:31 10° N 03:18:55 49° WNW 03:22:21 10° SW
Meteor 1-24 Rocket 3.8 03:14:09 10° SSW 03:19:52 73° WNW 03:25:24 10° N
Cosmos 2333 Rocket 3.7 03:17:17 10° W 03:22:05 27° NW 03:26:54 10° NNE
Cosmos 1125 Rocket 4.2 03:18:25 10° SW 03:23:23 44° NW 03:28:22 10° NNE
Nadezhda 1 Rocket 4.2 03:17:54 10° S 03:24:16 80° E 03:30:37 10° NNE
Gblst 52 Del rocket 4.2 03:19:16 10° W 03:24:59 75° S 03:30:28 10° E
USA 290 4.3 03:22:41 10° W 03:25:01 18° NW 03:27:20 10° N
Cosmos 1943 Rocket 2.3 03:20:51 10° NW 03:26:28 63° WSW 03:32:04 10° SSE
SL-16 R/B 2.9 03:21:57 10° S 03:27:25 52° ESE 03:32:55 10° NE
Cosmos 2369 Rocket 2.7 03:23:01 10° NNW 03:28:39 67° NE 03:34:12 10° SE
SL-16 R/B 3.7 03:23:55 10° SW 03:28:54 25° W 03:33:57 10° NW
COSMOS 2455 4.4 03:26:57 10° S 03:32:04 30° ESE 03:37:15 10° NE
